Location: Bullenkuhlen
(53.7689°N, 9.7495°E)
Time: 16:29:02
(UTC+00:00)

RESURS DK-1 - Pass Details

Date: 09 April 2020
Orbit: 557 x 561 km, 69.9° (Epoch: 03 June)

Event Time Altitude Azimuth Distance (km) Brightness Sun altitude
Rises 20:42:58 0° 322° (NW) 2,763 7.5 -19.7°
Reaches altitude 10° 20:45:13 10° 318° (NW) 1,862 6.2 -19.9°
Maximum altitude 20:49:14 49° 243° (WSW) 727 2.9 -20.3°
Enters shadow 20:50:14 40° 200° (SSW) 840 3.0 -20.4°
